KB7YYZ Weather Reports


time (UTC)temp
C
wind
direction
speed
KPH
gust
KPH
rain 1hr
cm
rain 24hr
cm
rain mn
cm
humidity
%
barometer
mb
20260906231543 38 294 3.2 3.2 0.00 0.00 0.00 28 1004.9
20260906230526 38 280 3.2 4.8 0.00 0.00 0.00 27 1005.0
20260906225526 38 298 4.8 4.8 0.00 0.00 0.00 28 1005.0
20260906224531 38 314 3.2 4.8 0.00 0.00 0.00 28 1005.1
20260906223521 38 289 3.2 3.2 0.00 0.00 0.00 28 1005.2
20260906222520 38 270 4.8 4.8 0.00 0.00 0.00 28 1005.2
20260906221526 38 286 3.2 3.2 0.00 0.00 0.00 28 1005.3
20260906220609 38 307 3.2 3.2 0.00 0.00 0.00 28 1005.4
20260906215521 38 297 3.2 3.2 0.00 0.00 0.00 28 1005.5
20260906214519 38 290 3.2 3.2 0.00 0.00 0.00 28 1005.7
20260906213526 38 287 3.2 3.2 0.00 0.00 0.00 28 1005.7
20260906212527 38 281 3.2 3.2 0.00 0.00 0.00 28 1005.7
20260906211525 38 314 3.2 3.2 0.00 0.00 0.00 28 1005.8
20260906210522 38 305 3.2 3.2 0.00 0.00 0.00 29 1006.0
20260906205525 38 280 3.2 3.2 0.00 0.00 0.00 29 1005.9
20260906204521 38 284 4.8 4.8 0.00 0.00 0.00 29 1006.1
20260906203609 38 283 3.2 3.2 0.00 0.00 0.00 29 1006.3
20260906202545 38 270 3.2 3.2 0.00 0.00 0.00 30 1006.4
20260906201526 38 279 3.2 4.8 0.00 0.00 0.00 29 1006.6
20260906200525 38 292 3.2 3.2 0.00 0.00 0.00 30 1006.6
20260906195525 38 263 3.2 3.2 0.00 0.00 0.00 30 1006.7
20260906194528 38 294 3.2 4.8 0.00 0.00 0.00 31 1006.9
20260906193525 38 319 3.2 3.2 0.00 0.00 0.00 31 1007.0
20260906192525 37 316 3.2 3.2 0.00 0.00 0.00 31 1007.1
20260906191526 37 281 3.2 3.2 0.00 0.00 0.00 32 1007.2
20260906190525 37 293 3.2 3.2 0.00 0.00 0.00 32 1007.3
20260906185522 37 299 3.2 3.2 0.00 0.00 0.00 33 1007.4
20260906184709 37 304 3.2 3.2 0.00 0.00 0.00 33 1007.5
20260906183525 36 287 1.6 3.2 0.00 0.00 0.00 33 1007.7
20260906182526 36 263 1.6 1.6 0.00 0.00 0.00 34 1007.9
20260906181520 36 245 1.6 1.6 0.00 0.00 0.00 34 1008.1
20260906180535 35 301 1.6 1.6 0.00 0.00 0.00 36 1008.2
20260906175544 35 349 1.6 1.6 0.00 0.00 0.00 38 1008.2
20260906174525 34 278 1.6 1.6 0.00 0.00 0.00 38 1008.3
20260906173526 33 341 1.6 1.6 0.00 0.00 0.00 40 1008.4
20260906172525 32 292 0.0 1.6 0.00 0.00 0.00 42 1008.4
20260906171525 32 287 0.0 0.0 0.00 0.00 0.00 42 1008.4
20260906170525 32 319 0.0 1.6 0.00 0.00 0.00 41 1008.4
20260906165527 31 318 0.0 1.6 0.00 0.00 0.00 42 1008.5
20260906164621 31 225 0.0 0.0 0.00 0.00 0.00 43 1008.5
20260906163524 31 235 0.0 0.0 0.00 0.00 0.00 43 1008.5
20260906162524 30 233 0.0 0.0 0.00 0.00 0.00 43 1008.5
20260906161527 30 214 0.0 1.6 0.00 0.00 0.00 44 1008.5
20260906160521 30 202 0.0 1.6 0.00 0.00 0.00 45 1008.6
20260906155525 30 211 0.0 0.0 0.00 0.00 0.00 46 1008.6
20260906154524 29 248 0.0 0.0 0.00 0.00 0.00 47 1008.6
20260906153523 29 181 0.0 0.0 0.00 0.00 0.00 48
20260906152544 28 180 0.0 0.0 0.00 0.00 0.00 49
20260906151543 28 0.0 0.0 0.00 0.00 0.00 49
20260906150527 28 0.0 0.0 0.00 0.00 0.00 50 1008.7
20260906145525 28 0.0 0.0 0.00 0.00 0.00 51 1008.8
20260906144523 28 0.0 0.0 0.00 0.00 0.00 52 1008.8
20260906143523 27 0.0 0.0 0.00 0.00 0.00 53 1008.6
20260906142604 28 0.0 0.0 0.00 0.00 0.00 52 1008.6
20260906141525 27 0.0 0.0 0.00 0.00 0.00 52 1008.4
20260906140543 27 0.0 0.0 0.00 0.00 0.00 52 1008.4
20260906135523 27 0.0 0.0 0.00 0.00 0.00 52 1008.3
20260906134524 27 0.0 0.0 0.00 0.00 0.00 52 1008.3
20260906133523 27 0.0 0.0 0.00 0.00 0.00 51 1008.3
20260906132523 27 0.0 0.0 0.00 0.00 0.00 51 1008.3
20260906131548 27 0.0 0.0 0.00 0.00 0.00 50 1008.3
20260906130523 28 0.0 0.0 0.00 0.00 0.00 49 1008.2
20260906125523 28 0.0 0.0 0.00 0.00 0.00 48 1008.1
20260906124524 28 0.0 0.0 0.00 0.00 0.00 48 1008.1
20260906123519 28 0.0 0.0 0.00 0.00 0.00 47 1007.9
20260906122519 28 0.0 0.0 0.00 0.00 0.00 47 1007.9
20260906121523 28 0.0 0.0 0.00 0.00 0.00 46 1007.6
20260906120523 28 0.0 0.0 0.00 0.00 0.00 46 1007.7
20260906115526 28 45 0.0 0.0 0.00 0.00 0.00 46 1007.6
20260906114522 28 309 0.0 0.0 0.00 0.00 0.00 46 1007.6
20260906113523 28 298 0.0 0.0 0.00 0.00 0.00 46 1007.5
20260906112524 28 349 0.0 0.0 0.00 0.00 0.00 46 1007.5
20260906111522 28 0.0 0.0 0.00 0.00 0.00 45 1007.4
20260906110522 28 17 0.0 0.0 0.00 0.00 0.00 45 1007.3
20260906105524 28 23 0.0 0.0 0.00 0.00 0.00 46 1007.4
20260906104519 28 16 0.0 0.0 0.00 0.00 0.00 46 1007.4
20260906103526 28 354 0.0 1.6 0.00 0.00 0.00 46 1007.4
20260906102522 28 339 1.6 1.6 0.00 0.00 0.00 46 1007.4
20260906101522 28 337 0.0 1.6 0.00 0.00 0.00 46 1007.3
20260906100521 28 345 1.6 1.6 0.00 0.00 0.00 46 1007.3
20260906095522 28 339 0.0 1.6 0.00 0.00 0.00 45 1007.1
20260906094542 29 0.0 0.0 0.00 0.00 0.00 44 1007.1
20260906093522 29 0.0 0.0 0.00 0.00 0.00 42 1007.2
20260906092521 30 0.0 0.0 0.00 0.00 0.00 42 1007.1
20260906091521 30 0.0 0.0 0.00 0.00 0.00 42 1007.2
20260906090541 30 0.0 0.0 0.00 0.00 0.00 41 1007.2
20260906085522 30 3 0.0 0.0 0.00 0.00 0.00 41 1007.2
20260906084523 30 16 0.0 0.0 0.00 0.00 0.00 40 1007.2
20260906083541 30 53 0.0 0.0 0.00 0.00 0.00 39 1007.3
20260906082522 30 338 0.0 1.6 0.00 0.00 0.00 40 1007.2
20260906081521 30 7 0.0 1.6 0.00 0.00 0.00 40 1007.3
20260906080541 30 16 1.6 1.6 0.00 0.00 0.00 41 1007.4
20260906075526 30 13 0.0 1.6 0.00 0.00 0.00 41 1007.5
20260906074604 30 352 1.6 3.2 0.00 0.00 0.00 41 1007.6
20260906073521 30 351 3.2 3.2 0.00 0.00 0.00 41 1007.6
20260906072523 31 341 1.6 1.6 0.00 0.00 0.00 41 1007.6
20260906071521 31 10 1.6 1.6 0.00 0.00 0.00 40 1007.6
20260906070521 31 336 3.2 3.2 0.00 0.00 0.00 41 1007.6
20260906065541 31 10 3.2 3.2 0.00 0.00 0.00 41 1007.6
20260906064521 31 5 3.2 3.2 0.00 0.00 0.00 41 1007.7
20260906063520 31 344 3.2 3.2 0.00 0.00 0.00 40 1007.6
20260906062520 31 337 1.6 1.6 0.00 0.00 0.00 40 1007.7
20260906061522 32 34 1.6 3.2 0.00 0.00 0.00 39 1007.6
20260906060522 32 357 3.2 3.2 0.00 0.00 0.00 39 1007.6
20260906055520 32 27 3.2 3.2 0.00 0.00 0.00 37 1007.7
20260906054521 32 5 3.2 3.2 0.00 0.00 0.00 37 1007.9
20260906053522 32 38 3.2 3.2 0.00 0.00 0.00 36 1007.9
20260906052520 32 37 3.2 3.2 0.00 0.00 0.00 36 1008.0
20260906051532 32 33 1.6 3.2 0.00 0.00 0.00 36 1008.0
20260906050521 32 14 1.6 3.2 0.00 0.00 0.00 37 1008.1
20260906045541 32 32 1.6 1.6 0.00 0.00 0.00 38 1008.1
20260906044520 32 3 1.6 1.6 0.00 0.00 0.00 38 1008.0
20260906043521 33 5 1.6 3.2 0.00 0.00 0.00 38 1008.0
20260906042520 33 330 1.6 1.6 0.00 0.00 0.00 36 1008.0
20260906041530 33 12 1.6 1.6 0.00 0.00 0.00 36 1008.0
20260906040523 33 94 1.6 1.6 0.00 0.00 0.00 36 1007.9
20260906035521 33 8 1.6 1.6 0.00 0.00 0.00 36 1007.9
20260906034520 33 26 1.6 1.6 0.00 0.00 0.00 36 1007.7
20260906033519 33 22 1.6 1.6 0.00 0.00 0.00 36 1007.6
20260906032520 33 22 0.0 0.0 0.00 0.00 0.00 37
20260906031520 33 14 0.0 0.0 0.00 0.00 0.00 36
20260906030521 33 22 1.6 1.6 0.00 0.00 0.00 35 1007.2
20260906025520 34 6 1.6 1.6 0.00 0.00 0.00 35 1007.0
20260906024520 34 22 1.6 1.6 0.00 0.00 0.00 35 1007.0
20260906023519 34 335 1.6 1.6 0.00 0.00 0.00 35 1006.9
20260906022523 35 4 1.6 1.6 0.00 0.00 0.00 34 1006.7
20260906021519 35 345 1.6 1.6 0.00 0.00 0.00 33 1006.7
20260906020521 35 351 1.6 1.6 0.00 0.00 0.00 33 1006.7
20260906015519 35 4 1.6 1.6 0.00 0.00 0.00 33 1006.7
20260906014519 35 314 3.2 3.2 0.00 0.00 0.00 32 1006.7
20260906013540 35 331 1.6 1.6 0.00 0.00 0.00 32 1006.7
20260906012519 36 320 3.2 3.2 0.00 0.00 0.00 32 1006.7
20260906011522 36 330 3.2 3.2 0.00 0.00 0.00 32 1006.7
20260906010519 36 340 3.2 3.2 0.00 0.00 0.00 32 1006.7
20260906005528 36 317 3.2 3.2 0.00 0.00 0.00 32 1006.8
20260906004525 36 283 3.2 3.2 0.00 0.00 0.00 31 1006.8
20260906003523 36 288 3.2 3.2 0.00 0.00 0.00 31 1006.7
20260906002543 37 286 3.2 3.2 0.00 0.00 0.00 32 1006.7
20260906001537 37 309 3.2 3.2 0.00 0.00 0.00 31 1006.6
20260906000555 37 326 4.8 4.8 0.00 0.00 0.00 31 1006.6
20260905235528 37 333 3.2 4.8 0.00 0.00 0.00 31
20260905234520 37 294 3.2 3.2 0.00 0.00 0.00 31 1006.5
20260905233526 37 326 3.2 3.2 0.00 0.00 0.00 31 1006.6
20260905232532 37 275 3.2 3.2 0.00 0.00 0.00 31 1006.6